TimeCST,TemperatureF,Dew PointF,Humidity,Sea Level PressureIn,VisibilityMPH,Wind Direction,Wind SpeedMPH,Gust SpeedMPH,PrecipitationIn,Events,Conditions,WindDirDegrees,DateUTC
12:53 AM,19.0,16.0,88,30.38,10.0,WNW,4.6,-,N/A,,Clear,300,2013-01-17 06:53:00
1:53 AM,19.0,16.0,88,30.38,10.0,NW,4.6,-,N/A,,Clear,310,2013-01-17 07:53:00
2:53 AM,21.2,17.6,86,30.33,10.0,Calm,Calm,-,N/A,,Clear,0,2013-01-17 08:53:00
3:53 AM,19.0,15.1,85,30.42,10.0,NNW,3.5,-,N/A,,Clear,330,2013-01-17 09:53:00
4:53 AM,16.0,12.9,88,30.43,10.0,Calm,Calm,-,N/A,,Clear,0,2013-01-17 10:53:00
5:53 AM,14.0,12.0,92,30.46,10.0,Calm,Calm,-,N/A,,Clear,0,2013-01-17 11:53:00
6:53 AM,17.1,12.9,84,30.48,10.0,NW,6.9,-,N/A,,Clear,310,2013-01-17 12:53:00
7:53 AM,16.0,12.0,84,30.51,10.0,WNW,5.8,-,N/A,,Clear,300,2013-01-17 13:53:00
8:53 AM,19.9,16.0,85,30.52,10.0,NW,4.6,-,N/A,,Clear,320,2013-01-17 14:53:00
9:53 AM,30.0,21.0,69,30.54,10.0,West,8.1,-,N/A,,Clear,270,2013-01-17 15:53:00
10:53 AM,35.1,21.0,57,30.53,10.0,West,8.1,-,N/A,,Clear,280,2013-01-17 16:53:00
11:53 AM,39.0,21.0,49,30.50,10.0,WNW,6.9,-,N/A,,Clear,290,2013-01-17 17:53:00
12:53 PM,44.1,21.9,42,30.45,10.0,West,4.6,-,N/A,,Clear,260,2013-01-17 18:53:00
1:53 PM,48.0,23.0,37,30.42,10.0,West,5.8,-,N/A,,Clear,280,2013-01-17 19:53:00
2:53 PM,50.0,21.9,33,30.39,10.0,WSW,6.9,-,N/A,,Clear,250,2013-01-17 20:53:00
3:53 PM,50.0,21.9,33,30.38,10.0,SW,6.9,-,N/A,,Clear,220,2013-01-17 21:53:00
4:53 PM,48.9,19.0,31,30.38,10.0,WSW,8.1,-,N/A,,Clear,250,2013-01-17 22:53:00
5:53 PM,42.1,21.0,43,30.39,10.0,SSW,3.5,-,N/A,,Clear,210,2013-01-17 23:53:00
6:53 PM,34.0,21.0,59,30.38,10.0,Calm,Calm,-,N/A,,Clear,0,2013-01-18 00:53:00
7:53 PM,35.1,23.0,61,30.37,10.0,SSW,6.9,-,N/A,,Clear,200,2013-01-18 01:53:00
8:53 PM,26.1,19.0,75,30.36,10.0,South,3.5,-,N/A,,Clear,170,2013-01-18 02:53:00
9:53 PM,33.1,21.0,61,30.31,10.0,Calm,Calm,-,N/A,,Clear,0,2013-01-18 03:53:00
10:53 PM,33.1,21.9,64,30.26,10.0,South,6.9,-,N/A,,Clear,180,2013-01-18 04:53:00
11:53 PM,35.1,21.0,57,30.23,10.0,SW,9.2,-,N/A,,Clear,230,2013-01-18 05:53:00